Time,TemperatureF,DewpointF,PressureIn,WindDirection,WindDirectionDegrees,WindSpeedMPH,WindSpeedGustMPH,Humidity,HourlyPrecipIn,Conditions,Clouds,dailyrainin,SoftwareType,DateUTC
2013-11-10 00:01:00,48.6,33.6,30.20,West,277,2.0,4.0,56,0.00,,,0.00,meteohub,2013-11-10 05:01:00,
2013-11-10 00:02:00,48.6,33.6,30.20,SW,234,2.0,4.0,56,0.00,,,0.00,meteohub,2013-11-10 05:02:00,
2013-11-10 00:03:00,48.6,33.6,30.20,WNW,295,2.0,4.0,56,0.00,,,0.00,meteohub,2013-11-10 05:03:00,
2013-11-10 00:09:00,48.7,33.3,30.20,WNW,289,2.0,4.0,55,0.00,,,0.00,meteohub,2013-11-10 05:09:00,
2013-11-10 00:14:00,48.7,33.3,30.20,WSW,258,3.0,4.0,55,0.00,,,0.00,meteohub,2013-11-10 05:14:00,
2013-11-10 00:19:00,48.9,33.4,30.20,WSW,239,3.0,5.0,55,0.00,,,0.00,meteohub,2013-11-10 05:19:00,
2013-11-10 00:24:00,48.9,33.1,30.19,WNW,302,0.0,5.0,54,0.00,,,0.00,meteohub,2013-11-10 05:24:00,
2013-11-10 00:29:00,49.1,33.3,30.19,WNW,290,2.0,5.0,54,0.00,,,0.00,meteohub,2013-11-10 05:29:00,
2013-11-10 00:34:00,49.3,32.9,30.19,SW,236,2.0,3.0,53,0.00,,,0.00,meteohub,2013-11-10 05:34:00,
2013-11-10 00:40:00,49.3,32.9,30.19,WNW,293,2.0,6.0,53,0.00,,,0.00,meteohub,2013-11-10 05:40:00,
2013-11-10 00:45:00,49.5,33.1,30.19,West,260,1.0,6.0,53,0.00,,,0.00,meteohub,2013-11-10 05:45:00,
2013-11-10 00:50:00,49.5,33.1,30.19,WSW,256,3.0,5.0,53,0.00,,,0.00,meteohub,2013-11-10 05:50:00,
2013-11-10 00:55:00,49.3,32.9,30.18,West,277,3.0,4.0,53,0.00,,,0.00,meteohub,2013-11-10 05:55:00,
2013-11-10 01:00:00,49.3,33.3,30.18,SW,232,1.0,5.0,54,0.00,,,0.00,meteohub,2013-11-10 06:00:00,
2013-11-10 01:06:00,48.9,33.4,30.18,SW,220,0.0,5.0,55,0.00,,,0.00,meteohub,2013-11-10 06:06:00,
2013-11-10 01:11:00,48.9,33.4,30.17,SW,220,1.0,4.0,55,0.00,,,0.00,meteohub,2013-11-10 06:11:00,
2013-11-10 01:16:00,48.7,34.2,30.18,SW,220,0.0,4.0,57,0.00,,,0.00,meteohub,2013-11-10 06:16:00,
2013-11-10 01:21:00,48.6,33.6,30.18,SW,220,0.0,3.0,56,0.00,,,0.00,meteohub,2013-11-10 06:21:00,
2013-11-10 01:26:00,48.4,33.8,30.18,SW,220,1.0,3.0,57,0.00,,,0.00,meteohub,2013-11-10 06:26:00,
2013-11-10 01:32:00,48.0,33.4,30.18,SW,220,1.0,2.0,57,0.00,,,0.00,meteohub,2013-11-10 06:32:00,
2013-11-10 01:37:00,47.8,33.8,30.18,SW,220,1.0,2.0,58,0.00,,,0.00,meteohub,2013-11-10 06:37:00,
2013-11-10 01:42:00,47.5,33.8,30.18,WSW,243,0.0,2.0,59,0.00,,,0.00,meteohub,2013-11-10 06:42:00,
2013-11-10 01:47:00,47.1,34.0,30.18,WSW,242,0.0,3.0,60,0.00,,,0.00,meteohub,2013-11-10 06:47:00,
2013-11-10 01:52:00,46.9,33.8,30.18,WSW,242,1.0,3.0,60,0.00,,,0.00,meteohub,2013-11-10 06:52:00,
2013-11-10 01:57:00,46.6,33.8,30.18,WSW,242,2.0,3.0,61,0.00,,,0.00,meteohub,2013-11-10 06:57:00,
2013-11-10 02:02:00,46.2,34.0,30.19,WSW,244,1.0,3.0,62,0.00,,,0.00,meteohub,2013-11-10 07:02:00,
2013-11-10 02:07:00,46.0,33.8,30.18,WSW,246,1.0,3.0,62,0.00,,,0.00,meteohub,2013-11-10 07:07:00,
2013-11-10 02:12:00,46.0,33.8,30.18,West,280,3.0,3.0,62,0.00,,,0.00,meteohub,2013-11-10 07:12:00,
2013-11-10 02:18:00,46.2,34.0,30.18,WNW,287,2.0,3.0,62,0.00,,,0.00,meteohub,2013-11-10 07:18:00,
2013-11-10 02:23:00,46.4,34.2,30.18,West,274,3.0,3.0,62,0.00,,,0.00,meteohub,2013-11-10 07:23:00,
2013-11-10 02:28:00,46.6,33.8,30.18,WNW,286,3.0,4.0,61,0.00,,,0.00,meteohub,2013-11-10 07:28:00,
2013-11-10 02:33:00,46.8,34.0,30.18,West,269,2.0,5.0,61,0.00,,,0.00,meteohub,2013-11-10 07:33:00,
2013-11-10 02:38:00,46.9,34.2,30.18,WNW,288,2.0,5.0,61,0.00,,,0.00,meteohub,2013-11-10 07:38:00,
2013-11-10 02:44:00,46.9,34.2,30.18,WSW,257,2.0,5.0,61,0.00,,,0.00,meteohub,2013-11-10 07:44:00,
2013-11-10 02:49:00,46.9,34.2,30.18,WSW,254,3.0,4.0,61,0.00,,,0.00,meteohub,2013-11-10 07:49:00,
2013-11-10 02:54:00,46.9,34.5,30.18,WNW,293,2.0,4.0,62,0.00,,,0.00,meteohub,2013-11-10 07:54:00,
2013-11-10 02:59:00,46.9,34.2,30.17,WNW,288,3.0,5.0,61,0.00,,,0.00,meteohub,2013-11-10 07:59:00,
2013-11-10 03:04:00,46.9,34.2,30.17,WNW,292,4.0,5.0,61,0.00,,,0.00,meteohub,2013-11-10 08:04:00,
2013-11-10 03:10:00,46.9,34.2,30.17,WNW,283,3.0,5.0,61,0.00,,,0.00,meteohub,2013-11-10 08:10:00,
2013-11-10 03:15:00,46.9,34.2,30.17,WNW,292,2.0,6.0,61,0.00,,,0.00,meteohub,2013-11-10 08:15:00,
2013-11-10 03:20:00,46.9,34.2,30.17,WNW,297,1.0,5.0,61,0.00,,,0.00,meteohub,2013-11-10 08:20:00,
2013-11-10 03:25:00,46.9,34.5,30.17,WSW,251,4.0,4.0,62,0.00,,,0.00,meteohub,2013-11-10 08:25:00,
2013-11-10 03:30:00,46.9,34.5,30.17,WSW,244,1.0,5.0,62,0.00,,,0.00,meteohub,2013-11-10 08:30:00,
2013-11-10 03:36:00,46.8,34.5,30.17,WNW,297,3.0,6.0,62,0.00,,,0.00,meteohub,2013-11-10 08:36:00,
2013-11-10 03:41:00,46.8,34.5,30.17,West,273,3.0,6.0,62,0.00,,,0.00,meteohub,2013-11-10 08:41:00,
2013-11-10 03:46:00,46.8,34.5,30.17,WNW,300,3.0,6.0,62,0.00,,,0.00,meteohub,2013-11-10 08:46:00,
2013-11-10 03:51:00,46.8,34.5,30.17,NW,305,2.0,6.0,62,0.00,,,0.00,meteohub,2013-11-10 08:51:00,
2013-11-10 03:56:00,46.8,34.5,30.17,West,279,5.0,6.0,62,0.00,,,0.00,meteohub,2013-11-10 08:56:00,
2013-11-10 04:02:00,46.8,34.9,30.17,WNW,301,3.0,5.0,63,0.00,,,0.00,meteohub,2013-11-10 09:02:00,
2013-11-10 04:07:00,46.6,34.7,30.17,NW,309,5.0,5.0,63,0.00,,,0.00,meteohub,2013-11-10 09:07:00,
2013-11-10 04:12:00,46.6,34.7,30.17,NW,312,3.0,5.0,63,0.00,,,0.00,meteohub,2013-11-10 09:12:00,
2013-11-10 04:17:00,46.4,34.5,30.17,NW,307,1.0,5.0,63,0.00,,,0.00,meteohub,2013-11-10 09:17:00,
2013-11-10 04:22:00,46.2,34.7,30.17,WNW,292,2.0,5.0,64,0.00,,,0.00,meteohub,2013-11-10 09:22:00,
2013-11-10 04:27:00,46.0,34.5,30.17,WNW,292,3.0,5.0,64,0.00,,,0.00,meteohub,2013-11-10 09:27:00,
2013-11-10 04:32:00,46.0,34.5,30.17,WSW,250,1.0,4.0,64,0.00,,,0.00,meteohub,2013-11-10 09:32:00,
2013-11-10 04:37:00,46.0,34.5,30.17,WNW,291,2.0,4.0,64,0.00,,,0.00,meteohub,2013-11-10 09:37:00,
2013-11-10 04:42:00,45.9,34.7,30.17,WNW,294,2.0,4.0,65,0.00,,,0.00,meteohub,2013-11-10 09:42:00,
2013-11-10 04:47:00,45.9,34.7,30.18,WNW,294,2.0,4.0,65,0.00,,,0.00,meteohub,2013-11-10 09:47:00,
2013-11-10 04:52:00,45.7,34.5,30.18,NW,308,4.0,4.0,65,0.00,,,0.00,meteohub,2013-11-10 09:52:00,
2013-11-10 04:57:00,45.7,34.5,30.18,WNW,293,2.0,4.0,65,0.00,,,0.00,meteohub,2013-11-10 09:57:00,
2013-11-10 05:02:00,45.7,34.5,30.18,West,269,2.0,4.0,65,0.00,,,0.00,meteohub,2013-11-10 10:02:00,
2013-11-10 05:07:00,45.5,34.9,30.18,WNW,296,2.0,4.0,66,0.00,,,0.00,meteohub,2013-11-10 10:07:00,
2013-11-10 05:12:00,45.3,34.7,30.18,WNW,298,2.0,4.0,66,0.00,,,0.00,meteohub,2013-11-10 10:12:00,
2013-11-10 05:17:00,45.3,34.7,30.18,NW,304,4.0,4.0,66,0.00,,,0.00,meteohub,2013-11-10 10:17:00,
2013-11-10 05:22:00,45.3,34.7,30.18,NW,306,3.0,4.0,66,0.00,,,0.00,meteohub,2013-11-10 10:22:00,
2013-11-10 05:27:00,45.1,34.5,30.18,NW,305,3.0,4.0,66,0.00,,,0.00,meteohub,2013-11-10 10:27:00,
2013-11-10 05:32:00,45.0,34.7,30.18,WNW,302,1.0,4.0,67,0.00,,,0.00,meteohub,2013-11-10 10:32:00,
2013-11-10 05:36:00,45.0,34.7,30.18,NW,306,2.0,4.0,67,0.00,,,0.00,meteohub,2013-11-10 10:36:00,
2013-11-10 05:41:00,44.8,34.5,30.18,WNW,300,3.0,4.0,67,0.00,,,0.00,meteohub,2013-11-10 10:41:00,
2013-11-10 05:46:00,44.8,34.9,30.18,WNW,296,3.0,4.0,68,0.00,,,0.00,meteohub,2013-11-10 10:46:00,
2013-11-10 05:51:00,44.6,34.7,30.18,NW,307,1.0,4.0,68,0.00,,,0.00,meteohub,2013-11-10 10:51:00,
2013-11-10 05:57:00,44.4,34.5,30.18,WNW,300,3.0,4.0,68,0.00,,,0.00,meteohub,2013-11-10 10:57:00,
2013-11-10 06:02:00,44.2,34.3,30.18,WNW,296,3.0,4.0,68,0.00,,,0.00,meteohub,2013-11-10 11:02:00,
2013-11-10 06:07:00,44.2,34.7,30.19,NW,311,4.0,4.0,69,0.00,,,0.00,meteohub,2013-11-10 11:07:00,
2013-11-10 06:12:00,44.2,34.7,30.18,NW,304,3.0,4.0,69,0.00,,,0.00,meteohub,2013-11-10 11:12:00,
2013-11-10 06:17:00,44.1,34.5,30.18,WNW,302,2.0,5.0,69,0.00,,,0.00,meteohub,2013-11-10 11:17:00,
2013-11-10 06:22:00,44.2,34.7,30.18,NW,304,2.0,5.0,69,0.00,,,0.00,meteohub,2013-11-10 11:22:00,
2013-11-10 06:27:00,44.1,34.5,30.18,NW,308,3.0,4.0,69,0.00,,,0.00,meteohub,2013-11-10 11:27:00,
2013-11-10 06:32:00,44.2,34.7,30.18,NW,314,3.0,5.0,69,0.00,,,0.00,meteohub,2013-11-10 11:32:00,
2013-11-10 06:37:00,44.2,34.7,30.19,WNW,300,3.0,5.0,69,0.00,,,0.00,meteohub,2013-11-10 11:37:00,
2013-11-10 06:42:00,44.2,34.7,30.19,NW,305,4.0,4.0,69,0.00,,,0.00,meteohub,2013-11-10 11:42:00,
2013-11-10 06:47:00,44.1,34.5,30.19,NW,311,3.0,4.0,69,0.00,,,0.00,meteohub,2013-11-10 11:47:00,
2013-11-10 06:52:00,44.1,34.5,30.19,NW,311,3.0,4.0,69,0.00,,,0.00,meteohub,2013-11-10 11:52:00,
2013-11-10 06:57:00,44.1,34.9,30.18,WNW,299,3.0,5.0,70,0.00,,,0.00,meteohub,2013-11-10 11:57:00,
2013-11-10 07:02:00,43.9,34.7,30.19,NW,305,2.0,5.0,70,0.00,,,0.00,meteohub,2013-11-10 12:02:00,
2013-11-10 07:07:00,43.9,34.7,30.19,NW,312,3.0,5.0,70,0.00,,,0.00,meteohub,2013-11-10 12:07:00,
2013-11-10 07:12:00,43.7,34.5,30.19,NW,311,2.0,4.0,70,0.00,,,0.00,meteohub,2013-11-10 12:12:00,
2013-11-10 07:17:00,43.5,34.3,30.19,WNW,300,3.0,4.0,70,0.00,,,0.00,meteohub,2013-11-10 12:17:00,
2013-11-10 07:22:00,43.5,34.3,30.19,NW,306,3.0,4.0,70,0.00,,,0.00,meteohub,2013-11-10 12:22:00,
2013-11-10 07:27:00,43.7,34.5,30.19,NW,306,4.0,4.0,70,0.00,,,0.00,meteohub,2013-11-10 12:27:00,
2013-11-10 07:32:00,43.9,34.7,30.19,NW,309,3.0,4.0,70,0.00,,,0.00,meteohub,2013-11-10 12:32:00,
2013-11-10 07:37:00,44.1,34.9,30.19,WNW,300,4.0,4.0,70,0.00,,,0.00,meteohub,2013-11-10 12:37:00,
2013-11-10 07:42:00,44.2,35.1,30.19,WNW,298,2.0,4.0,70,0.00,,,0.00,meteohub,2013-11-10 12:42:00,
2013-11-10 07:47:00,44.2,34.7,30.20,WNW,297,2.0,4.0,69,0.00,,,0.00,meteohub,2013-11-10 12:47:00,
2013-11-10 07:52:00,44.6,35.1,30.20,NW,307,4.0,4.0,69,0.00,,,0.00,meteohub,2013-11-10 12:52:00,
2013-11-10 07:57:00,45.1,35.2,30.20,WNW,297,2.0,4.0,68,0.00,,,0.00,meteohub,2013-11-10 12:57:00,
2013-11-10 08:02:00,45.3,35.1,30.20,WNW,283,2.0,4.0,67,0.00,,,0.00,meteohub,2013-11-10 13:02:00,
2013-11-10 08:07:00,45.7,35.4,30.20,WNW,294,2.0,4.0,67,0.00,,,0.00,meteohub,2013-11-10 13:07:00,
2013-11-10 08:12:00,45.7,35.4,30.20,NW,310,3.0,4.0,67,0.00,,,0.00,meteohub,2013-11-10 13:12:00,
2013-11-10 08:17:00,45.9,35.6,30.20,WNW,292,2.0,4.0,67,0.00,,,0.00,meteohub,2013-11-10 13:17:00,
2013-11-10 08:22:00,46.2,35.4,30.20,WNW,297,1.0,4.0,66,0.00,,,0.00,meteohub,2013-11-10 13:22:00,
2013-11-10 08:27:00,46.8,35.6,30.20,WNW,298,2.0,4.0,65,0.00,,,0.00,meteohub,2013-11-10 13:27:00,
2013-11-10 08:32:00,47.3,35.8,30.20,WNW,300,3.0,4.0,64,0.00,,,0.00,meteohub,2013-11-10 13:32:00,
2013-11-10 08:37:00,47.8,35.4,30.20,WNW,288,2.0,4.0,62,0.00,,,0.00,meteohub,2013-11-10 13:37:00,
2013-11-10 08:42:00,48.4,35.6,30.20,NW,313,3.0,4.0,61,0.00,,,0.00,meteohub,2013-11-10 13:42:00,
2013-11-10 08:47:00,48.9,35.6,30.20,NW,311,3.0,4.0,60,0.00,,,0.00,meteohub,2013-11-10 13:47:00,
2013-11-10 08:52:00,49.5,36.1,30.20,WNW,295,2.0,4.0,60,0.00,,,0.00,meteohub,2013-11-10 13:52:00,
2013-11-10 08:57:00,50.0,36.3,30.20,WNW,297,2.0,4.0,59,0.00,,,0.00,meteohub,2013-11-10 13:57:00,
2013-11-10 09:02:00,50.5,36.3,30.21,NW,314,2.0,4.0,58,0.00,,,0.00,meteohub,2013-11-10 14:02:00,
2013-11-10 09:07:00,50.9,37.0,30.20,WNW,294,3.0,4.0,59,0.00,,,0.00,meteohub,2013-11-10 14:07:00,
2013-11-10 09:12:00,51.4,36.7,30.20,NW,315,2.0,4.0,57,0.00,,,0.00,meteohub,2013-11-10 14:12:00,
2013-11-10 09:17:00,52.3,36.7,30.20,West,281,2.0,4.0,55,0.00,,,0.00,meteohub,2013-11-10 14:17:00,
2013-11-10 09:22:00,53.2,37.4,30.20,West,280,2.0,4.0,55,0.00,,,0.00,meteohub,2013-11-10 14:22:00,
2013-11-10 09:27:00,53.8,37.6,30.20,WNW,302,1.0,3.0,54,0.00,,,0.00,meteohub,2013-11-10 14:27:00,
2013-11-10 09:32:00,54.3,37.6,30.20,WNW,284,2.0,6.0,53,0.00,,,0.00,meteohub,2013-11-10 14:32:00,
2013-11-10 09:37:00,54.9,37.6,30.20,NW,304,3.0,6.0,52,0.00,,,0.00,meteohub,2013-11-10 14:37:00,
2013-11-10 09:42:00,55.4,37.6,30.20,West,271,2.0,6.0,51,0.00,,,0.00,meteohub,2013-11-10 14:42:00,
2013-11-10 09:47:00,55.9,38.1,30.19,West,271,3.0,6.0,51,0.00,,,0.00,meteohub,2013-11-10 14:47:00,
2013-11-10 09:52:00,56.5,38.7,30.19,NW,309,2.0,5.0,51,0.00,,,0.00,meteohub,2013-11-10 14:52:00,
2013-11-10 09:57:00,57.0,39.0,30.19,NW,313,3.0,5.0,51,0.00,,,0.00,meteohub,2013-11-10 14:57:00,
2013-11-10 10:02:00,57.9,39.4,30.19,NW,304,3.0,6.0,50,0.00,,,0.00,meteohub,2013-11-10 15:02:00,
2013-11-10 10:07:00,58.6,40.1,30.19,WNW,291,2.0,6.0,50,0.00,,,0.00,meteohub,2013-11-10 15:07:00,
2013-11-10 10:12:00,59.2,40.1,30.18,West,276,3.0,5.0,49,0.00,,,0.00,meteohub,2013-11-10 15:12:00,
2013-11-10 10:17:00,59.5,39.9,30.18,WNW,284,3.0,6.0,48,0.00,,,0.00,meteohub,2013-11-10 15:17:00,
2013-11-10 10:22:00,60.3,39.9,30.18,WNW,303,4.0,7.0,47,0.00,,,0.00,meteohub,2013-11-10 15:22:00,
2013-11-10 10:27:00,61.2,40.8,30.18,WNW,292,4.0,7.0,47,0.00,,,0.00,meteohub,2013-11-10 15:27:00,
2013-11-10 10:32:00,61.7,40.1,30.18,WNW,300,2.0,6.0,45,0.00,,,0.00,meteohub,2013-11-10 15:32:00,
2013-11-10 10:37:00,62.1,39.9,30.18,WNW,286,7.0,7.0,44,0.00,,,0.00,meteohub,2013-11-10 15:37:00,
2013-11-10 10:42:00,62.2,39.4,30.17,NW,313,3.0,8.0,43,0.00,,,0.00,meteohub,2013-11-10 15:42:00,
2013-11-10 10:47:00,62.2,39.4,30.17,West,267,4.0,8.0,43,0.00,,,0.00,meteohub,2013-11-10 15:47:00,
2013-11-10 10:52:00,62.4,39.0,30.17,NW,312,4.0,10.0,42,0.00,,,0.00,meteohub,2013-11-10 15:52:00,
2013-11-10 10:57:00,62.8,39.4,30.17,West,259,3.0,10.0,42,0.00,,,0.00,meteohub,2013-11-10 15:57:00,
2013-11-10 11:02:00,63.1,38.5,30.17,NNW,331,4.0,10.0,40,0.00,,,0.00,meteohub,2013-11-10 16:02:00,
2013-11-10 11:07:00,63.1,37.8,30.16,NW,314,4.0,11.0,39,0.00,,,0.00,meteohub,2013-11-10 16:07:00,
2013-11-10 11:12:00,63.3,38.7,30.16,SW,219,2.0,11.0,40,0.00,,,0.00,meteohub,2013-11-10 16:12:00,
2013-11-10 11:17:00,63.5,37.4,30.16,WSW,248,3.0,10.0,38,0.00,,,0.00,meteohub,2013-11-10 16:17:00,
2013-11-10 11:22:00,63.7,38.3,30.16,WNW,295,5.0,7.0,39,0.00,,,0.00,meteohub,2013-11-10 16:22:00,
2013-11-10 11:27:00,63.9,37.8,30.16,SW,229,3.0,9.0,38,0.00,,,0.00,meteohub,2013-11-10 16:27:00,
2013-11-10 11:32:00,64.0,37.2,30.15,West,267,3.0,9.0,37,0.00,,,0.00,meteohub,2013-11-10 16:32:00,
2013-11-10 11:37:00,64.4,38.3,30.15,WNW,302,3.0,9.0,38,0.00,,,0.00,meteohub,2013-11-10 16:37:00,
2013-11-10 11:42:00,64.8,38.5,30.14,WNW,301,3.0,8.0,38,0.00,,,0.00,meteohub,2013-11-10 16:42:00,
2013-11-10 11:47:00,64.8,38.5,30.14,NW,313,5.0,7.0,38,0.00,,,0.00,meteohub,2013-11-10 16:47:00,
2013-11-10 11:52:00,64.9,38.1,30.13,West,265,4.0,6.0,37,0.00,,,0.00,meteohub,2013-11-10 16:52:00,
2013-11-10 11:57:00,65.5,37.8,30.13,NNW,344,4.0,7.0,36,0.00,,,0.00,meteohub,2013-11-10 16:57:00,
2013-11-10 12:02:00,65.8,38.1,30.13,North,355,4.0,7.0,36,0.00,,,0.00,meteohub,2013-11-10 17:02:00,
2013-11-10 12:07:00,66.0,36.1,30.12,NW,313,7.0,7.0,33,0.00,,,0.00,meteohub,2013-11-10 17:07:00,
2013-11-10 12:12:00,66.4,34.9,30.12,WSW,245,4.0,13.0,31,0.00,,,0.00,meteohub,2013-11-10 17:12:00,
2013-11-10 12:17:00,66.7,35.1,30.12,WNW,282,6.0,13.0,31,0.00,,,0.00,meteohub,2013-11-10 17:17:00,
2013-11-10 12:22:00,66.9,36.1,30.12,WSW,247,3.0,13.0,32,0.00,,,0.00,meteohub,2013-11-10 17:22:00,
2013-11-10 12:27:00,67.1,35.4,30.12,WNW,283,3.0,9.0,31,0.00,,,0.00,meteohub,2013-11-10 17:27:00,
2013-11-10 12:32:00,66.9,35.2,30.12,WNW,293,4.0,9.0,31,0.00,,,0.00,meteohub,2013-11-10 17:32:00,
2013-11-10 12:37:00,66.9,36.1,30.12,WSW,254,3.0,9.0,32,0.00,,,0.00,meteohub,2013-11-10 17:37:00,
2013-11-10 12:42:00,66.9,36.1,30.11,SW,235,3.0,14.0,32,0.00,,,0.00,meteohub,2013-11-10 17:42:00,
2013-11-10 12:47:00,66.9,36.1,30.11,NW,316,4.0,14.0,32,0.00,,,0.00,meteohub,2013-11-10 17:47:00,
2013-11-10 12:52:00,67.1,35.4,30.11,NW,326,4.0,14.0,31,0.00,,,0.00,meteohub,2013-11-10 17:52:00,
2013-11-10 12:57:00,67.1,35.4,30.11,WNW,296,3.0,10.0,31,0.00,,,0.00,meteohub,2013-11-10 17:57:00,
2013-11-10 13:02:00,67.3,35.6,30.10,WNW,293,6.0,10.0,31,0.00,,,0.00,meteohub,2013-11-10 18:02:00,
2013-11-10 13:07:00,67.3,35.6,30.10,West,270,4.0,10.0,31,0.00,,,0.00,meteohub,2013-11-10 18:07:00,
2013-11-10 13:12:00,67.6,36.0,30.10,West,278,2.0,8.0,31,0.00,,,0.00,meteohub,2013-11-10 18:12:00,
2013-11-10 13:17:00,68.2,36.3,30.09,NW,312,6.0,9.0,31,0.00,,,0.00,meteohub,2013-11-10 18:17:00,
2013-11-10 13:22:00,68.4,36.5,30.09,NW,317,7.0,10.0,31,0.00,,,0.00,meteohub,2013-11-10 18:22:00,
2013-11-10 13:27:00,67.8,35.2,30.09,West,279,3.0,10.0,30,0.00,,,0.00,meteohub,2013-11-10 18:27:00,
2013-11-10 13:32:00,67.8,35.2,30.09,West,275,7.0,10.0,30,0.00,,,0.00,meteohub,2013-11-10 18:32:00,
2013-11-10 13:37:00,67.8,35.2,30.09,West,276,4.0,9.0,30,0.00,,,0.00,meteohub,2013-11-10 18:37:00,
2013-11-10 13:42:00,68.0,34.5,30.09,NW,308,5.0,10.0,29,0.00,,,0.00,meteohub,2013-11-10 18:42:00,
2013-11-10 13:47:00,68.2,35.6,30.09,NW,307,9.0,10.0,30,0.00,,,0.00,meteohub,2013-11-10 18:47:00,
2013-11-10 13:52:00,68.2,35.6,30.09,WNW,291,4.0,10.0,30,0.00,,,0.00,meteohub,2013-11-10 18:52:00,
2013-11-10 13:57:00,68.0,35.4,30.09,NW,314,5.0,10.0,30,0.00,,,0.00,meteohub,2013-11-10 18:57:00,
2013-11-10 14:02:00,68.2,35.6,30.09,WNW,298,3.0,10.0,30,0.00,,,0.00,meteohub,2013-11-10 19:02:00,
2013-11-10 14:07:00,68.2,35.6,30.09,NW,321,7.0,10.0,30,0.00,,,0.00,meteohub,2013-11-10 19:07:00,
2013-11-10 14:12:00,68.2,35.6,30.09,WNW,292,7.0,9.0,30,0.00,,,0.00,meteohub,2013-11-10 19:12:00,
2013-11-10 14:17:00,68.4,35.8,30.09,West,272,4.0,10.0,30,0.00,,,0.00,meteohub,2013-11-10 19:17:00,
2013-11-10 14:22:00,68.2,35.6,30.09,West,272,4.0,14.0,30,0.00,,,0.00,meteohub,2013-11-10 19:22:00,
2013-11-10 14:27:00,68.2,35.6,30.09,West,267,5.0,14.0,30,0.00,,,0.00,meteohub,2013-11-10 19:27:00,
2013-11-10 14:33:00,68.2,35.6,30.09,West,278,2.0,14.0,30,0.00,,,0.00,meteohub,2013-11-10 19:33:00,
2013-11-10 14:38:00,68.2,35.6,30.09,West,269,11.0,12.0,30,0.00,,,0.00,meteohub,2013-11-10 19:38:00,
2013-11-10 14:43:00,68.2,35.6,30.09,NW,319,10.0,12.0,30,0.00,,,0.00,meteohub,2013-11-10 19:43:00,
2013-11-10 14:48:00,68.2,35.6,30.08,NW,305,3.0,12.0,30,0.00,,,0.00,meteohub,2013-11-10 19:48:00,
2013-11-10 14:54:00,68.4,35.8,30.08,West,265,1.0,11.0,30,0.00,,,0.00,meteohub,2013-11-10 19:54:00,
2013-11-10 14:59:00,68.4,35.8,30.08,West,262,3.0,11.0,30,0.00,,,0.00,meteohub,2013-11-10 19:59:00,
2013-11-10 15:04:00,68.5,36.7,30.08,WNW,282,3.0,7.0,31,0.00,,,0.00,meteohub,2013-11-10 20:04:00,
2013-11-10 15:09:00,68.4,36.5,30.08,WNW,283,3.0,7.0,31,0.00,,,0.00,meteohub,2013-11-10 20:09:00,
2013-11-10 15:14:00,68.4,35.8,30.08,NW,312,3.0,8.0,30,0.00,,,0.00,meteohub,2013-11-10 20:14:00,
2013-11-10 15:19:00,68.4,35.8,30.08,NW,316,5.0,8.0,30,0.00,,,0.00,meteohub,2013-11-10 20:19:00,
2013-11-10 15:25:00,68.4,36.5,30.08,West,269,1.0,8.0,31,0.00,,,0.00,meteohub,2013-11-10 20:25:00,
2013-11-10 15:30:00,68.4,35.8,30.08,WNW,290,2.0,9.0,30,0.00,,,0.00,meteohub,2013-11-10 20:30:00,
2013-11-10 15:35:00,68.4,35.8,30.08,WSW,256,2.0,9.0,30,0.00,,,0.00,meteohub,2013-11-10 20:35:00,
2013-11-10 15:40:00,68.4,35.8,30.08,WNW,293,3.0,11.0,30,0.00,,,0.00,meteohub,2013-11-10 20:40:00,
2013-11-10 15:45:00,68.4,35.8,30.08,WSW,257,5.0,11.0,30,0.00,,,0.00,meteohub,2013-11-10 20:45:00,
2013-11-10 15:50:00,68.4,35.8,30.08,WSW,254,3.0,11.0,30,0.00,,,0.00,meteohub,2013-11-10 20:50:00,
2013-11-10 15:56:00,68.2,35.6,30.08,West,279,2.0,11.0,30,0.00,,,0.00,meteohub,2013-11-10 20:56:00,
2013-11-10 16:01:00,68.4,36.5,30.08,West,273,2.0,11.0,31,0.00,,,0.00,meteohub,2013-11-10 21:01:00,
2013-11-10 16:06:00,68.4,35.8,30.08,West,277,2.0,6.0,30,0.00,,,0.00,meteohub,2013-11-10 21:06:00,
2013-11-10 16:11:00,68.2,35.6,30.08,WSW,244,0.0,5.0,30,0.00,,,0.00,meteohub,2013-11-10 21:11:00,
2013-11-10 16:16:00,68.0,36.3,30.08,WNW,294,2.0,5.0,31,0.00,,,0.00,meteohub,2013-11-10 21:16:00,
2013-11-10 16:21:00,68.0,36.3,30.09,West,279,2.0,5.0,31,0.00,,,0.00,meteohub,2013-11-10 21:21:00,
2013-11-10 16:27:00,67.8,36.1,30.09,WSW,252,0.0,5.0,31,0.00,,,0.00,meteohub,2013-11-10 21:27:00,
2013-11-10 16:32:00,67.5,35.8,30.09,NW,307,1.0,5.0,31,0.00,,,0.00,meteohub,2013-11-10 21:32:00,
2013-11-10 16:37:00,67.3,36.5,30.09,NW,307,1.0,3.0,32,0.00,,,0.00,meteohub,2013-11-10 21:37:00,
2013-11-10 16:42:00,66.7,36.7,30.09,NW,307,1.0,3.0,33,0.00,,,0.00,meteohub,2013-11-10 21:42:00,
2013-11-10 16:47:00,66.4,36.3,30.09,NW,307,2.0,3.0,33,0.00,,,0.00,meteohub,2013-11-10 21:47:00,
2013-11-10 16:52:00,65.8,36.7,30.09,WNW,301,1.0,3.0,34,0.00,,,0.00,meteohub,2013-11-10 21:52:00,
2013-11-10 16:57:00,65.7,36.5,30.09,NW,308,5.0,5.0,34,0.00,,,0.00,meteohub,2013-11-10 21:57:00,
2013-11-10 17:02:00,65.8,34.3,30.10,WNW,302,4.0,9.0,31,0.00,,,0.00,meteohub,2013-11-10 22:02:00,
2013-11-10 17:07:00,65.8,32.7,30.10,NW,305,2.0,9.0,29,0.00,,,0.00,meteohub,2013-11-10 22:07:00,
2013-11-10 17:12:00,65.7,31.6,30.10,NW,309,2.0,9.0,28,0.00,,,0.00,meteohub,2013-11-10 22:12:00,
2013-11-10 17:17:00,65.7,31.6,30.10,NW,309,2.0,6.0,28,0.00,,,0.00,meteohub,2013-11-10 22:17:00,
2013-11-10 17:22:00,65.5,31.5,30.11,WNW,298,1.0,5.0,28,0.00,,,0.00,meteohub,2013-11-10 22:22:00,
2013-11-10 17:27:00,65.1,31.3,30.11,WNW,298,1.0,5.0,28,0.00,,,0.00,meteohub,2013-11-10 22:27:00,
2013-11-10 17:32:00,64.8,31.8,30.11,WNW,298,1.0,4.0,29,0.00,,,0.00,meteohub,2013-11-10 22:32:00,
2013-11-10 17:37:00,64.0,31.1,30.12,WNW,298,2.0,4.0,29,0.00,,,0.00,meteohub,2013-11-10 22:37:00,
2013-11-10 17:42:00,63.9,30.9,30.12,NW,305,2.0,4.0,29,0.00,,,0.00,meteohub,2013-11-10 22:42:00,
2013-11-10 17:47:00,63.7,31.6,30.12,NW,306,2.0,4.0,30,0.00,,,0.00,meteohub,2013-11-10 22:47:00,
2013-11-10 17:52:00,63.3,32.2,30.12,NW,304,3.0,4.0,31,0.00,,,0.00,meteohub,2013-11-10 22:52:00,
2013-11-10 17:57:00,62.8,31.6,30.12,NW,309,3.0,4.0,31,0.00,,,0.00,meteohub,2013-11-10 22:57:00,
2013-11-10 18:02:00,62.4,30.6,30.12,NW,309,3.0,5.0,30,0.00,,,0.00,meteohub,2013-11-10 23:02:00,
2013-11-10 18:07:00,62.4,30.6,30.13,NW,306,3.0,5.0,30,0.00,,,0.00,meteohub,2013-11-10 23:07:00,
2013-11-10 18:12:00,62.4,30.6,30.13,NW,304,3.0,5.0,30,0.00,,,0.00,meteohub,2013-11-10 23:12:00,
2013-11-10 18:17:00,62.4,30.6,30.13,NW,306,4.0,5.0,30,0.00,,,0.00,meteohub,2013-11-10 23:17:00,
2013-11-10 18:22:00,62.1,30.2,30.14,NW,308,3.0,5.0,30,0.00,,,0.00,meteohub,2013-11-10 23:22:00,
2013-11-10 18:27:00,61.9,30.9,30.14,NW,312,1.0,5.0,31,0.00,,,0.00,meteohub,2013-11-10 23:27:00,
2013-11-10 18:32:00,61.5,30.6,30.14,NW,312,2.0,4.0,31,0.00,,,0.00,meteohub,2013-11-10 23:32:00,
2013-11-10 18:37:00,61.2,31.1,30.14,NW,311,1.0,4.0,32,0.00,,,0.00,meteohub,2013-11-10 23:37:00,
2013-11-10 18:42:00,60.6,30.6,30.15,NW,311,1.0,4.0,32,0.00,,,0.00,meteohub,2013-11-10 23:42:00,
2013-11-10 18:47:00,60.6,30.6,30.15,NW,311,2.0,3.0,32,0.00,,,0.00,meteohub,2013-11-10 23:47:00,
2013-11-10 18:52:00,60.4,30.4,30.15,NW,306,2.0,3.0,32,0.00,,,0.00,meteohub,2013-11-10 23:52:00,
2013-11-10 18:57:00,60.3,30.2,30.15,WNW,303,4.0,4.0,32,0.00,,,0.00,meteohub,2013-11-10 23:57:00,
2013-11-10 19:02:00,60.3,30.2,30.15,NW,323,5.0,5.0,32,0.00,,,0.00,meteohub,2013-11-11 00:02:00,
2013-11-10 19:07:00,60.3,30.2,30.15,WNW,300,1.0,6.0,32,0.00,,,0.00,meteohub,2013-11-11 00:07:00,
2013-11-10 19:12:00,59.5,31.1,30.16,WNW,298,3.0,6.0,34,0.00,,,0.00,meteohub,2013-11-11 00:12:00,
2013-11-10 19:17:00,59.2,30.7,30.16,WNW,300,2.0,6.0,34,0.00,,,0.00,meteohub,2013-11-11 00:17:00,
2013-11-10 19:22:00,58.5,31.6,30.16,WNW,300,0.0,4.0,36,0.00,,,0.00,meteohub,2013-11-11 00:22:00,
2013-11-10 19:27:00,57.6,30.7,30.17,WNW,303,2.0,4.0,36,0.00,,,0.00,meteohub,2013-11-11 00:27:00,
2013-11-10 19:32:00,57.7,30.2,30.17,NW,309,3.0,3.0,35,0.00,,,0.00,meteohub,2013-11-11 00:32:00,
2013-11-10 19:37:00,57.9,29.7,30.17,WNW,300,4.0,4.0,34,0.00,,,0.00,meteohub,2013-11-11 00:37:00,
2013-11-10 19:42:00,58.3,29.3,30.17,NW,311,4.0,5.0,33,0.00,,,0.00,meteohub,2013-11-11 00:42:00,
2013-11-10 19:47:00,58.5,29.5,30.17,NW,311,4.0,5.0,33,0.00,,,0.00,meteohub,2013-11-11 00:47:00,
2013-11-10 19:52:00,58.3,29.3,30.17,NW,315,4.0,5.0,33,0.00,,,0.00,meteohub,2013-11-11 00:52:00,
2013-11-10 19:57:00,57.9,28.9,30.17,NW,315,3.0,5.0,33,0.00,,,0.00,meteohub,2013-11-11 00:57:00,
2013-11-10 20:02:00,57.7,28.8,30.18,NW,324,3.0,5.0,33,0.00,,,0.00,meteohub,2013-11-11 01:02:00,
2013-11-10 20:07:00,57.7,28.0,30.18,NW,314,4.0,5.0,32,0.00,,,0.00,meteohub,2013-11-11 01:07:00,
2013-11-10 20:13:00,57.7,27.3,30.18,NW,309,4.0,5.0,31,0.00,,,0.00,meteohub,2013-11-11 01:13:00,
2013-11-10 20:18:00,57.7,28.0,30.18,NW,313,3.0,7.0,32,0.00,,,0.00,meteohub,2013-11-11 01:18:00,
2013-11-10 20:23:00,57.6,27.9,30.18,NW,316,4.0,7.0,32,0.00,,,0.00,meteohub,2013-11-11 01:23:00,
2013-11-10 20:28:00,57.2,27.7,30.18,NW,317,4.0,7.0,32,0.00,,,0.00,meteohub,2013-11-11 01:28:00,
2013-11-10 20:33:00,57.0,26.6,30.19,NW,318,3.0,6.0,31,0.00,,,0.00,meteohub,2013-11-11 01:33:00,
2013-11-10 20:39:00,56.8,26.6,30.19,NW,304,4.0,6.0,31,0.00,,,0.00,meteohub,2013-11-11 01:39:00,
2013-11-10 20:44:00,56.7,26.4,30.19,NW,311,3.0,5.0,31,0.00,,,0.00,meteohub,2013-11-11 01:44:00,
2013-11-10 20:49:00,56.1,25.9,30.19,NW,312,4.0,5.0,31,0.00,,,0.00,meteohub,2013-11-11 01:49:00,
2013-11-10 20:54:00,56.1,25.9,30.20,NW,316,4.0,6.0,31,0.00,,,0.00,meteohub,2013-11-11 01:54:00,
2013-11-10 20:59:00,55.9,25.7,30.20,NW,312,5.0,6.0,31,0.00,,,0.00,meteohub,2013-11-11 01:59:00,
2013-11-10 21:04:00,55.8,25.5,30.20,NW,313,3.0,6.0,31,0.00,,,0.00,meteohub,2013-11-11 02:04:00,
2013-11-10 21:10:00,55.4,26.1,30.21,NW,313,3.0,6.0,32,0.00,,,0.00,meteohub,2013-11-11 02:10:00,
2013-11-10 21:15:00,55.2,25.9,30.21,NW,314,3.0,5.0,32,0.00,,,0.00,meteohub,2013-11-11 02:15:00,
2013-11-10 21:20:00,54.9,26.2,30.22,NW,315,3.0,5.0,33,0.00,,,0.00,meteohub,2013-11-11 02:20:00,
2013-11-10 21:25:00,54.1,25.7,30.22,NW,321,4.0,5.0,33,0.00,,,0.00,meteohub,2013-11-11 02:25:00,
2013-11-10 21:30:00,54.1,26.4,30.22,NW,310,6.0,8.0,34,0.00,,,0.00,meteohub,2013-11-11 02:30:00,
2013-11-10 21:36:00,54.3,26.6,30.22,NW,315,6.0,9.0,34,0.00,,,0.00,meteohub,2013-11-11 02:36:00,
2013-11-10 21:41:00,54.1,26.4,30.22,NW,318,7.0,9.0,34,0.00,,,0.00,meteohub,2013-11-11 02:41:00,
2013-11-10 21:46:00,54.0,27.0,30.22,NW,321,6.0,9.0,35,0.00,,,0.00,meteohub,2013-11-11 02:46:00,
2013-11-10 21:51:00,53.6,27.3,30.22,NNW,331,4.0,9.0,36,0.00,,,0.00,meteohub,2013-11-11 02:51:00,
2013-11-10 21:56:00,53.4,27.9,30.22,NW,318,7.0,9.0,37,0.00,,,0.00,meteohub,2013-11-11 02:56:00,
2013-11-10 22:02:00,53.2,27.7,30.22,NW,321,4.0,9.0,37,0.00,,,0.00,meteohub,2013-11-11 03:02:00,
2013-11-10 22:07:00,53.2,28.2,30.22,NNW,329,6.0,9.0,38,0.00,,,0.00,meteohub,2013-11-11 03:07:00,
2013-11-10 22:12:00,53.1,28.8,30.23,NW,320,5.0,9.0,39,0.00,,,0.00,meteohub,2013-11-11 03:12:00,
2013-11-10 22:17:00,52.9,28.6,30.23,NW,316,5.0,8.0,39,0.00,,,0.00,meteohub,2013-11-11 03:17:00,
2013-11-10 22:22:00,52.5,28.9,30.23,NW,325,6.0,8.0,40,0.00,,,0.00,meteohub,2013-11-11 03:22:00,
2013-11-10 22:27:00,52.3,28.8,30.23,NW,325,3.0,8.0,40,0.00,,,0.00,meteohub,2013-11-11 03:27:00,
2013-11-10 22:32:00,52.2,29.1,30.23,NW,323,5.0,7.0,41,0.00,,,0.00,meteohub,2013-11-11 03:32:00,
2013-11-10 22:37:00,51.8,29.5,30.23,NW,319,7.0,7.0,42,0.00,,,0.00,meteohub,2013-11-11 03:37:00,
2013-11-10 22:42:00,51.6,29.3,30.23,NW,321,6.0,10.0,42,0.00,,,0.00,meteohub,2013-11-11 03:42:00,
2013-11-10 22:47:00,51.6,29.3,30.23,NW,320,6.0,10.0,42,0.00,,,0.00,meteohub,2013-11-11 03:47:00,
2013-11-10 22:52:00,51.4,29.7,30.24,NW,325,5.0,10.0,43,0.00,,,0.00,meteohub,2013-11-11 03:52:00,
2013-11-10 22:57:00,51.3,30.0,30.24,NW,317,9.0,10.0,44,0.00,,,0.00,meteohub,2013-11-11 03:57:00,
2013-11-10 23:02:00,51.1,29.8,30.24,NW,308,7.0,10.0,44,0.00,,,0.00,meteohub,2013-11-11 04:02:00,
2013-11-10 23:07:00,50.9,30.4,30.24,NW,325,5.0,12.0,45,0.00,,,0.00,meteohub,2013-11-11 04:07:00,
2013-11-10 23:12:00,50.7,29.7,30.25,WNW,299,8.0,15.0,44,0.00,,,0.00,meteohub,2013-11-11 04:12:00,
2013-11-10 23:17:00,50.7,29.7,30.25,NNW,343,5.0,15.0,44,0.00,,,0.00,meteohub,2013-11-11 04:17:00,
2013-11-10 23:22:00,50.5,28.9,30.25,NW,320,7.0,15.0,43,0.00,,,0.00,meteohub,2013-11-11 04:22:00,
2013-11-10 23:27:00,50.5,28.9,30.25,NNW,348,7.0,13.0,43,0.00,,,0.00,meteohub,2013-11-11 04:27:00,
2013-11-10 23:32:00,50.4,28.8,30.25,NW,323,8.0,13.0,43,0.00,,,0.00,meteohub,2013-11-11 04:32:00,
2013-11-10 23:37:00,50.2,28.6,30.25,NW,323,8.0,12.0,43,0.00,,,0.00,meteohub,2013-11-11 04:37:00,
2013-11-10 23:42:00,50.0,28.4,30.25,NW,319,7.0,12.0,43,0.00,,,0.00,meteohub,2013-11-11 04:42:00,
2013-11-10 23:47:00,49.6,28.6,30.25,NW,320,6.0,12.0,44,0.00,,,0.00,meteohub,2013-11-11 04:47:00,
2013-11-10 23:52:00,49.6,28.6,30.25,NW,323,8.0,12.0,44,0.00,,,0.00,meteohub,2013-11-11 04:52:00,
2013-11-10 23:57:00,49.5,27.9,30.25,NNW,329,6.0,11.0,43,0.00,,,0.00,meteohub,2013-11-11 04:57:00,